This is the latest recevied weather packets stored in our database for station/object GOLDWX. If no packets are shown the sender has not sent any weather packets the latest 10 day(s).
| Time | Temp. | Humidity | Pressure | Rain* | Wind** | Luminosity | Snow |
|---|---|---|---|---|---|---|---|
| 1777540650 | 8.89° C | 54% | 1016.4 hPa | 0 mm | - | - | - |
| 1777540048 | 8.89° C | 52% | 1016.6 hPa | 0 mm | - | - | - |
| 1777539748 | 8.89° C | 53% | 1016.5 hPa | 0 mm | - | - | - |
| 1777539146 | 8.89° C | 55% | 1016.6 hPa | 0 mm | - | - | - |
| 1777538845 | 8.89° C | 52% | 1016.7 hPa | 0 mm | - | - | - |
| 1777538243 | 9.44° C | 52% | 1016.8 hPa | 0 mm | - | - | - |
| 1777537943 | 9.44° C | 52% | 1016.6 hPa | 0 mm | - | - | - |
| 1777537340 | 9.44° C | 53% | 1016.6 hPa | 0 mm | - | - | - |
| 1777537039 | 9.44° C | 53% | 1016.6 hPa | 0 mm | - | - | - |
| 1777536437 | 10° C | 49% | 1016.7 hPa | 0 mm | - | - | - |
| 1777536136 | 10° C | 48% | 1016.6 hPa | 0 mm | - | - | - |
| 1777535535 | 10° C | 47% | 1016.7 hPa | 0 mm | - | - | - |
| 1777535234 | 10° C | 49% | 1016.7 hPa | 0 mm | - | - | - |
| 1777534632 | 10° C | 52% | 1016.8 hPa | 0 mm | - | - | - |
| 1777534332 | 10° C | 49% | 1016.8 hPa | 0 mm | - | - | - |
| 1777533730 | 10.56° C | 47% | 1016.8 hPa | 0 mm | - | - | - |
| 1777533429 | 10.56° C | 47% | 1016.8 hPa | 0 mm | - | - | - |
| 1777532827 | 10.56° C | 47% | 1016.7 hPa | 0 mm | - | - | - |
| 1777532526 | 10.56° C | 47% | 1016.8 hPa | 0 mm | - | - | - |
| 1777531924 | 10.56° C | 51% | 1016.8 hPa | 0 mm | - | - | - |
| 1777531624 | 10.56° C | 51% | 1016.8 hPa | 0 mm | - | - | - |
| 1777531022 | 10.56° C | 53% | 1016.8 hPa | 0 mm | - | - | - |
| 1777530721 | 10.56° C | 52% | 1016.8 hPa | 0 mm | - | - | - |
| 1777530119 | 11.11° C | 47% | 1016.8 hPa | 0 mm | - | - | - |
| 1777529819 | 11.11° C | 47% | 1016.8 hPa | 0 mm | - | - | - |
* Rain since midnight (hover to see other rain measurements)
** Current wind speed in m/s (hover to see current wind gust speed)